DECAYED

OBJECT BP, 60529 (Decayed)

Orbit data source: Space-Track

You're viewing an uncataloged RSO

Recently launched and/or uncataloged RSOs may have evolving metadata. Metadata may include the following, but is not limited to: Owner, Manufacturer, Bus, Motor, and Mission.

OBJECT BP, 60529 was a satellite in LEO that was launched on Fri, 16 Aug 2024 UTC via an FALCON 9 launch vehicle from the Air Force Western Test Range (AFWTR). Unknown objects in Earth's orbit typically refer to objects detected orbiting the Earth but have not yet been identified or cataloged. These objects could be anything from previously untracked satellites, spent rocket stages, debris from satellite collisions, or even natural meteoroids temporarily captured by Earth's gravity. This object's orbit decayed before it could be identified.

Not visible in the next 10 days
Identifier
60529, 2024-149BP
Orbit
Decayed
Country
Flag of TBDTBD
Related business
Flag of SNSenegalese Space Project, Ministry of Higher Education, Research and Innovation (SN)
Manufacturer
Montpellier
Mission
Decayed Civil Technology
Bus & Motor
CUBESAT 1U, Unknown motor
Mass
1 kg wet, 1 kg dry
Launch date (UTC)
2024-08-16 (2 years ago)
Launch vehicle
FALCON 9
Launch site
Air Force Western Test Range (AFWTR)
Object type
Unknown
Shape & HBR
Box, 0.1 m
Radar Cross Section
0.015 m², Medium (>0.1 m² and < 1m²)

Expand to show TLE details & history
Last TLE update: 8 months ago

TLE from 8 months ago
0 OBJECT BP
1 60529U 24149BP  26021.20605179  .13334605  25086-5  92795-3 0  9999
2 60529  97.3696 117.4933 0010153 281.2791  78.7368 16.40534344 80575
Epoch: 2026-01-21T04:56Z
TLE epoch observation values (Epoch: 2026-01-21T04:56:42.874Z)
Latitude
Longitude
-77.26224°
Altitude
166.343 km
Speed
7.807 km/s
True Right ascension
07h 49m 58s
True Declination
0° 00' 00"
Sunlit
Object was in full shadow at epoch
Visualization orbit readout
Latitude
Unknown
Longitude
Unknown
Altitude
Unknown
Speed
Unknown
Apparent Right ascension
Unknown
Apparent Declination
Unknown
Sunlit
N/A
Visualization observer readout
Local Sidereal Time
11:21:04
Azimuth
Unknown
Elevation
Unknown
Doppler factor
Unknown
Orbital elements
Apogee altitude
167.826 km
Perigee altitude
154.548 km
Semi-major axis
6,539.324 km
Eccentricity
0.00102
Inclination
97.3696°
RAAN
117.4933°
Arg. of periapsis
281.2791°
True anomaly
78.85093°
Mean anomaly
78.7368°
Eccentric anomaly
78.79386°
Mean motion
4.10435 °/min
Orbital period
87.71 mins
BSTAR
0.00092795
Loading maneuver chart data...
Computing Atmospheric mass density...
Loading historical data...
Loading historical data...
Loading historical data...
Loading historical data...
Loading historical data...
Loading historical data...
Loading historical data...

Documentation

Showing up to 5 results
|